Flag for Canada Weather past 2 weeks in Brantford, Ontario, Canada

Now
55 °F

Partly sunny.


Feels Like: 52 °F
Forecast: 42 / 57 °F
Wind: 14 mph from West

Location: Hamilton Airport

Current Time: Sep 22, 2014 at 4:29:21 PM

Latest Report: Sep 22, 2014 at 4:00 PM


Visibility: 15 mi

Pressure: 30.13 "Hg

Humidity: 55%

Dew point: 39 °F

Location of BrantfordLocation

Historic Weather in Brantford — Graph

°F

Brantford temperature yesterday

Maximum temperature yesterday: 73 °F (at 1:00 PM)
Minimum temperature yesterday: 52 °F (at 11:00 PM)
Average temperature yesterday: 65 °F

Past Weeks' High & Low Weather Summary

 TemperatureHumidityPressure
High75 °F (Sep 10, 3:00 PM)100% (Sep 8, 10:00 PM)30.36 "Hg (Sep 8, 10:00 PM)
Low39 °F (Sep 19, 6:00 AM)46% (Sep 7, 3:00 PM)29.54 "Hg (Sep 21, 9:00 AM)
Average57 °F80%30.06 "Hg
* Reported Sep 7 3:00 PM — Sep 22 3:00 PM, Brantford, Weather by CustomWeather, © 2014

Note: Actual official high and low records may vary slightly from our data, if they occured in-between our weather recording intervals... More about our weather records

Advertising

Brantford weather history for previous 24 hours

 ConditionsComfort  
Time TempWeatherWind HumidityBarometerVisibility
3:00 PM
Sep 22
54 °FPartly sunny.13 mph58%30.13 "Hg15 mi
2:00 PM52 °FPartly sunny.12 mph62%30.12 "Hg15 mi
1:00 PM52 °FBroken clouds.14 mph58%30.12 "Hg15 mi
12:00 PM52 °FPartly sunny.9 mph62%30.11 "Hg15 mi
11:00 AM50 °FOvercast.12 mph62%30.11 "Hg15 mi
10:00 AM48 °FOvercast.13 mph66%30.09 "Hg15 mi
9:00 AM48 °FPartly sunny.14 mph66%30.06 "Hg15 mi
8:00 AM48 °FPassing clouds.10 mph66%30.03 "Hg15 mi
7:00 AM48 °FOvercast.9 mph76%30.00 "Hg15 mi
6:00 AM48 °FOvercast.9 mph82%29.97 "Hg15 mi
5:00 AM48 °FPassing clouds.8 mph82%29.93 "Hg15 mi
4:00 AM48 °FPassing clouds.9 mph82%29.90 "Hg15 mi
3:00 AM50 °FPassing clouds.18 mph76%29.87 "Hg15 mi
2:00 AM50 °FPassing clouds.15 mph76%29.85 "Hg15 mi
1:00 AM50 °FPartly cloudy.18 mph76%29.83 "Hg15 mi
12:00 AM50 °FPassing clouds.18 mph82%29.80 "Hg15 mi
11:00 PM
Sep 21
52 °FPartly cloudy.17 mph82%29.78 "Hg15 mi
10:00 PM54 °FPassing clouds.20 mph82%29.74 "Hg15 mi
9:00 PM59 °FPassing clouds.10 mph82%29.68 "Hg15 mi
8:00 PM59 °FPartly sunny.10 mph82%29.65 "Hg15 mi
7:00 PM59 °FBroken clouds.9 mph77%29.64 "Hg15 mi
6:00 PM64 °FBroken clouds.13 mph64%29.61 "Hg15 mi
5:00 PM68 °FBroken clouds.14 mph60%29.59 "Hg15 mi
4:00 PM70 °FBroken clouds.16 mph60%29.58 "Hg15 mi
Weather by CustomWeather, © 2014

See weather overviewHow to use our weather pages